| time (UTC) | temp F | wind direction | speed knots | gust knots | rain 1hr in | rain 24hr in | rain mn in | humidity % | barometer mb |
| 20260901173336 | 90 | 18 | 0.0 | 4.3 | 0.00 | 0.00 | 0.00 | 65 | 1016.2 |
| 20260901172340 | 90 | 37 | 0.9 | 4.3 | 0.00 | 0.00 | 0.00 | 67 | 1016.3 |
| 20260901171328 | 90 | 43 | 2.6 | 5.2 | 0.00 | 0.00 | 0.00 | 66 | 1016.4 |
| 20260901170331 | 89 | 48 | 0.0 | 4.3 | 0.00 | 0.00 | 0.00 | 69 | 1016.4 |
| 20260901165336 | 88 | 345 | 0.9 | 2.6 | 0.00 | 0.00 | 0.00 | 70 | 1016.5 |
| 20260901164327 | 88 | 65 | 2.6 | 5.2 | 0.00 | 0.00 | 0.00 | 71 | 1016.4 |
| 20260901163327 | 87 | 65 | 1.7 | 4.3 | 0.00 | 0.00 | 0.00 | 71 | 1016.5 |
| 20260901162331 | 87 | 5 | 0.9 | 3.5 | 0.00 | 0.00 | 0.00 | 72 | 1016.7 |
| 20260901161335 | 87 | 315 | 0.0 | 2.6 | 0.00 | 0.00 | 0.00 | 73 | 1016.7 |
| 20260901160339 | 87 | 5 | 0.0 | 2.6 | 0.00 | 0.00 | 0.00 | 73 | 1016.5 |
| 20260901155324 | 87 | 360 | 0.9 | 2.6 | 0.00 | 0.00 | 0.00 | 73 | 1016.5 |
| 20260901154326 | 87 | 347 | 0.9 | 3.5 | 0.00 | 0.00 | 0.00 | 72 | 1016.4 |
| 20260901153333 | 87 | 338 | 1.7 | 5.2 | 0.00 | 0.00 | 0.00 | 72 | 1016.5 |
| 20260901152338 | 87 | 286 | 1.7 | 7.8 | 0.00 | 0.00 | 0.00 | 74 | 1016.4 |
| 20260901151343 | 86 | 15 | 0.9 | 4.3 | 0.00 | 0.00 | 0.00 | 75 | 1016.5 |
| 20260901150325 | 85 | 322 | 1.7 | 7.8 | 0.00 | 0.00 | 0.00 | 77 | 1016.5 |
| 20260901145332 | 84 | 319 | 0.9 | 7.0 | 0.00 | 0.00 | 0.00 | 77 | 1016.6 |
| 20260901144335 | 84 | 332 | 2.6 | 7.0 | 0.00 | 0.00 | 0.00 | 81 | 1016.6 |
| 20260901143358 | 83 | 319 | 3.5 | 7.0 | 0.00 | 0.00 | 0.00 | 83 | 1016.6 |
| 20260901142342 | 82 | 297 | 0.0 | 5.2 | 0.00 | 0.00 | 0.00 | 85 | 1016.6 |
| 20260901141331 | 81 | 316 | 0.0 | 5.2 | 0.00 | 0.00 | 0.00 | 87 | 1016.7 |
| 20260901140332 | 80 | 330 | 0.0 | 4.3 | 0.00 | 0.00 | 0.00 | 89 | 1016.8 |
| 20260901135338 | 79 | 5 | 1.7 | 5.2 | 0.00 | 0.00 | 0.00 | 90 | 1016.8 |
| 20260901134404 | 78 | 283 | 1.7 | 4.3 | 0.00 | 0.00 | 0.00 | 92 | 1016.7 |
| 20260901133324 | 77 | 322 | 0.9 | 2.6 | 0.00 | 0.00 | 0.00 | 93 | 1016.7 |
| 20260901132331 | 77 | 316 | 0.9 | 2.6 | 0.00 | 0.00 | 0.00 | 93 | 1016.7 |
| 20260901131357 | 77 | 325 | 0.0 | 2.6 | 0.00 | 0.00 | 0.00 | 93 | 1016.6 |
| 20260901130338 | 77 | 318 | 0.9 | 2.6 | 0.00 | 0.00 | 0.00 | 93 | 1016.5 |
| 20260901125349 | 76 | 334 | 0.0 | 1.7 | 0.00 | 0.00 | 0.00 | 93 | 1016.5 |
| 20260901124333 | 76 | 318 | 0.0 | 1.7 | 0.00 | 0.00 | 0.00 | 93 | 1016.2 |
| 20260901123334 | 76 | 303 | 0.9 | 1.7 | 0.00 | 0.00 | 0.00 | 94 | 1016.1 |
| 20260901122401 | 76 | 326 | 0.0 | 1.7 | 0.00 | 0.00 | 0.00 | 93 | 1015.9 |
| 20260901121324 | 76 | 324 | 0.0 | 0.9 | 0.00 | 0.00 | 0.00 | 93 | 1015.7 |
| 20260901120326 | 76 | 324 | 0.0 | 0.9 | 0.00 | 0.00 | 0.00 | 93 | 1015.7 |
| 20260901115351 | 76 | 5 | 0.0 | 1.7 | 0.00 | 0.00 | 0.00 | 93 | 1015.5 |
| 20260901114337 | 76 | 5 | 0.0 | 0.0 | 0.00 | 0.00 | 0.00 | 93 | 1015.4 |
| 20260901113324 | 76 | 5 | 0.0 | 0.0 | 0.00 | 0.00 | 0.00 | 93 | 1015.3 |
| 20260901112327 | 76 | 5 | 0.0 | 0.0 | 0.00 | 0.00 | 0.00 | 92 | 1015.3 |
| 20260901111333 | 76 | 5 | 0.0 | 0.0 | 0.00 | 0.00 | 0.00 | 92 | 1015.3 |
| 20260901110334 | 76 | 5 | 0.0 | 0.0 | 0.00 | 0.00 | 0.00 | 92 | 1015.3 |
| 20260901105341 | 76 | 5 | 0.0 | 0.0 | 0.00 | 0.00 | 0.00 | 92 | 1015.3 |
| 20260901104325 | 76 | 10 | 0.0 | 0.0 | 0.00 | 0.00 | 0.00 | 92 | 1015.4 |
| 20260901103328 | 76 | 32 | 0.0 | 0.0 | 0.00 | 0.00 | 0.00 | 92 | 1015.3 |
| 20260901102335 | 76 | 116 | 0.0 | 0.0 | 0.00 | 0.00 | 0.00 | 92 | 1015.2 |
| 20260901101342 | 76 | 116 | 0.0 | 0.0 | 0.00 | 0.00 | 0.00 | 92 | 1015.2 |
| 20260901100326 | 76 | 116 | 0.0 | 0.0 | 0.00 | 0.00 | 0.00 | 91 | 1015.2 |
| 20260901095330 | 77 | 116 | 0.0 | 0.0 | 0.00 | 0.00 | 0.00 | 91 | 1015.1 |
| 20260901094336 | 77 | 116 | 0.0 | 0.0 | 0.00 | 0.00 | 0.00 | 91 | 1015.1 |
| 20260901093357 | 77 | 116 | 0.0 | 0.0 | 0.00 | 0.00 | 0.00 | 91 | 1015.1 |
| 20260901092342 | 77 | 117 | 0.0 | 0.0 | 0.00 | 0.00 | 0.00 | 91 | 1015.2 |
| 20260901091326 | 77 | 116 | 0.0 | 0.0 | 0.00 | 0.00 | 0.00 | 91 | 1015.2 |
| 20260901090330 | 77 | 116 | 0.0 | 0.0 | 0.00 | 0.00 | 0.00 | 92 | 1015.2 |
| 20260901085340 | 77 | 116 | 0.0 | 0.0 | 0.00 | 0.00 | 0.00 | 92 | 1015.3 |
| 20260901084326 | 77 | 116 | 0.0 | 0.0 | 0.00 | 0.00 | 0.00 | 91 | 1015.4 |
| 20260901082332 | 77 | 116 | 0.0 | 0.0 | 0.00 | 0.00 | 0.00 | 90 | 1015.5 |
| 20260901081337 | 77 | 116 | 0.0 | 0.0 | 0.00 | 0.00 | 0.00 | 90 | 1015.6 |
| 20260901080339 | 77 | 116 | 0.0 | 0.0 | 0.00 | 0.00 | 0.00 | 89 | 1015.7 |
| 20260901075324 | 78 | 116 | 0.0 | 0.0 | 0.00 | 0.00 | 0.00 | 89 | 1015.8 |
| 20260901074353 | 78 | 116 | 0.0 | 0.0 | 0.00 | 0.00 | 0.00 | 89 | 1015.8 |
| 20260901073335 | 78 | 116 | 0.0 | 0.0 | 0.00 | 0.00 | 0.00 | 90 | 1015.6 |
| 20260901072343 | 78 | 116 | 0.0 | 0.0 | 0.00 | 0.00 | 0.00 | 89 | 1015.7 |
| 20260901071327 | 78 | 116 | 0.0 | 0.0 | 0.00 | 0.00 | 0.00 | 89 | 1015.7 |
| 20260901070350 | 78 | 116 | 0.0 | 0.0 | 0.00 | 0.00 | 0.00 | 88 | 1015.8 |
| 20260901065355 | 79 | 116 | 0.0 | 0.0 | 0.00 | 0.00 | 0.00 | 88 | 1015.9 |
| 20260901064342 | 79 | 116 | 0.0 | 0.0 | 0.00 | 0.00 | 0.00 | 87 | 1015.9 |
| 20260901063324 | 79 | 116 | 0.0 | 0.0 | 0.00 | 0.00 | 0.00 | 87 | 1015.9 |
| 20260901062335 | 80 | 116 | 0.0 | 0.0 | 0.00 | 0.00 | 0.00 | 86 | 1016.0 |
| 20260901061341 | 80 | 116 | 0.0 | 0.9 | 0.00 | 0.00 | 0.00 | 86 | 1015.8 |
| 20260901060326 | 80 | 116 | 0.9 | 1.7 | 0.00 | 0.00 | 0.00 | 85 | 1015.9 |
| 20260901055332 | 80 | 175 | 0.0 | 1.7 | 0.00 | 0.00 | 0.00 | 85 | 1015.8 |
| 20260901054338 | 80 | 175 | 0.0 | 0.0 | 0.00 | 0.00 | 0.00 | 84 | 1015.6 |
| 20260901053338 | 80 | 175 | 0.0 | 0.0 | 0.00 | 0.00 | 0.00 | 84 | 1015.7 |
| 20260901052344 | 80 | 175 | 0.0 | 0.0 | 0.00 | 0.00 | 0.00 | 84 | 1015.6 |
| 20260901051349 | 81 | 175 | 0.0 | 0.0 | 0.00 | 0.00 | 0.00 | 84 | 1015.6 |
| 20260901050336 | 81 | 174 | 0.0 | 0.0 | 0.00 | 0.00 | 0.00 | 84 | 1015.5 |
| 20260901045341 | 81 | 179 | 0.0 | 0.9 | 0.00 | 0.00 | 0.00 | 83 | 1015.6 |
| 20260901044347 | 81 | 177 | 0.0 | 1.7 | 0.00 | 0.00 | 0.00 | 83 | 1015.4 |
| 20260901043329 | 81 | 167 | 0.0 | 1.7 | 0.00 | 0.00 | 0.00 | 82 | 1015.5 |
| 20260901042354 | 82 | 140 | 0.0 | 0.0 | 0.00 | 0.00 | 0.00 | 81 | 1015.3 |
| 20260901041337 | 82 | 195 | 0.0 | 0.0 | 0.00 | 0.00 | 0.00 | 81 | 1015.3 |
| 20260901040342 | 82 | 195 | 0.0 | 0.0 | 0.00 | 0.00 | 0.00 | 80 | 1015.3 |
| 20260901035325 | 82 | 195 | 0.0 | 0.0 | 0.00 | 0.00 | 0.00 | 80 | 1015.2 |
| 20260901034335 | 82 | 186 | 0.0 | 0.0 | 0.00 | 0.00 | 0.00 | 80 | 1015.1 |
| 20260901033339 | 82 | 172 | 0.0 | 0.0 | 0.00 | 0.00 | 0.00 | 79 | 1015.0 |
| 20260901032345 | 83 | 158 | 0.0 | 0.0 | 0.00 | 0.00 | 0.00 | 79 | 1015.0 |
| 20260901031329 | 83 | 148 | 0.0 | 0.9 | 0.00 | 0.00 | 0.00 | 77 | 1014.8 |
| 20260901030332 | 83 | 160 | 0.0 | 0.0 | 0.00 | 0.00 | 0.00 | 76 | 1014.7 |
| 20260901025336 | 84 | 132 | 0.0 | 0.0 | 0.00 | 0.00 | 0.00 | 75 | 1014.6 |
| 20260901024341 | 84 | 132 | 0.0 | 1.7 | 0.00 | 0.00 | 0.00 | 75 | 1014.6 |
| 20260901023325 | 84 | 132 | 0.9 | 1.7 | 0.00 | 0.00 | 0.00 | 73 | 1014.6 |
| 20260901022335 | 85 | 132 | 0.9 | 2.6 | 0.00 | 0.00 | 0.00 | 72 | 1014.3 |
| 20260901021342 | 85 | 143 | 0.9 | 1.7 | 0.00 | 0.00 | 0.00 | 71 | 1014.1 |
| 20260901020329 | 85 | 144 | 0.9 | 2.6 | 0.00 | 0.00 | 0.00 | 70 | 1014.0 |
| 20260901015336 | 86 | 133 | 2.6 | 4.3 | 0.00 | 0.00 | 0.00 | 69 | 1013.8 |
| 20260901014342 | 86 | 143 | 1.7 | 4.3 | 0.00 | 0.00 | 0.00 | 68 | 1013.8 |
| 20260901013326 | 87 | 133 | 1.7 | 3.5 | 0.00 | 0.00 | 0.00 | 68 | 1013.8 |
| 20260901012336 | 87 | 141 | 1.7 | 3.5 | 0.00 | 0.00 | 0.00 | 67 | 1013.9 |
| 20260901011341 | 88 | 151 | 3.5 | 7.0 | 0.00 | 0.00 | 0.00 | 66 | 1014.0 |
| 20260901010342 | 89 | 133 | 2.6 | 6.1 | 0.00 | 0.00 | 0.00 | 64 | 1013.9 |
| 20260901005327 | 89 | 114 | 3.5 | 7.0 | 0.00 | 0.00 | 0.00 | 61 | 1013.8 |
| 20260901004351 | 90 | 135 | 3.5 | 6.1 | 0.00 | 0.00 | 0.00 | 59 | 1013.7 |
| 20260901003331 | 90 | 126 | 2.6 | 7.8 | 0.00 | 0.00 | 0.00 | 57 | 1013.7 |
| 20260901002357 | 91 | 132 | 3.5 | 7.8 | 0.00 | 0.00 | 0.00 | 55 | 1013.7 |
| 20260901001340 | 91 | 143 | 2.6 | 5.2 | 0.00 | 0.00 | 0.00 | 56 | 1013.7 |
| 20260901000405 | 92 | 113 | 1.7 | 8.7 | 0.00 | 0.00 | 0.00 | 55 | 1013.6 |
| 20260831235332 | 92 | 118 | 1.7 | 7.8 | 0.00 | 0.00 | 0.00 | 54 | 1013.7 |
| 20260831234338 | 93 | 123 | 2.6 | 5.2 | 0.00 | 0.00 | 0.00 | 55 | 1013.6 |
| 20260831233340 | 93 | 122 | 5.2 | 7.8 | 0.00 | 0.00 | 0.00 | 54 | 1013.6 |
| 20260831232325 | 93 | 133 | 3.5 | 8.7 | 0.00 | 0.00 | 0.00 | 54 | 1013.6 |
| 20260831231331 | 93 | 68 | 3.5 | 7.0 | 0.00 | 0.00 | 0.00 | 55 | 1013.5 |
| 20260831230334 | 93 | 136 | 4.3 | 9.6 | 0.00 | 0.00 | 0.00 | 54 | 1013.4 |
| 20260831225339 | 94 | 135 | 5.2 | 10.4 | 0.00 | 0.00 | 0.00 | 54 | 1013.6 |
| 20260831224328 | 94 | 102 | 1.7 | 6.1 | 0.00 | 0.00 | 0.00 | 55 | 1013.6 |
| 20260831223328 | 94 | 105 | 0.9 | 3.5 | 0.00 | 0.00 | 0.00 | 54 | 1013.6 |
| 20260831222334 | 94 | 116 | 0.9 | 3.5 | 0.00 | 0.00 | 0.00 | 54 | 1013.7 |
| 20260831221340 | 93 | 83 | 0.9 | 2.6 | 0.00 | 0.00 | 0.00 | 55 | 1013.7 |
| 20260831220342 | 93 | 144 | 0.0 | 0.9 | 0.00 | 0.00 | 0.00 | 54 | 1013.7 |
| 20260831215346 | 94 | 99 | 1.7 | 3.5 | 0.00 | 0.00 | 0.00 | 52 | 1013.8 |
| 20260831214350 | 95 | 138 | 0.9 | 2.6 | 0.00 | 0.00 | 0.00 | 50 | 1013.9 |
| 20260831213331 | 95 | 56 | 0.9 | 1.7 | 0.00 | 0.00 | 0.00 | 50 | 1013.9 |
| 20260831212341 | 95 | 343 | 0.9 | 2.6 | 0.00 | 0.00 | 0.00 | 51 | 1014.0 |
| 20260831211326 | 95 | 351 | 0.0 | 2.6 | 0.00 | 0.00 | 0.00 | 50 | 1014.0 |
| 20260831210330 | 95 | 112 | 0.9 | 3.5 | 0.00 | 0.00 | 0.00 | 49 | 1014.1 |
| 20260831205335 | 96 | 89 | 0.9 | 3.5 | 0.00 | 0.00 | 0.00 | 49 | 1014.1 |
| 20260831204402 | 96 | 102 | 2.6 | 3.5 | 0.00 | 0.00 | 0.00 | 49 | 1014.3 |
| 20260831203323 | 95 | 351 | 0.9 | 2.6 | 0.00 | 0.00 | 0.00 | 49 | 1014.4 |
| 20260831202330 | 96 | 360 | 0.9 | 3.5 | 0.00 | 0.00 | 0.00 | 48 | 1014.7 |
| 20260831201340 | 96 | 360 | 0.9 | 7.0 | 0.00 | 0.00 | 0.00 | 48 | 1014.8 |
| 20260831200343 | 96 | 322 | 1.7 | 5.2 | 0.00 | 0.00 | 0.00 | 51 | 1014.9 |
| 20260831195330 | 96 | 37 | 0.9 | 2.6 | 0.00 | 0.00 | 0.00 | 49 | 1015.1 |
| 20260831194355 | 96 | 27 | 0.9 | 7.0 | 0.00 | 0.00 | 0.00 | 50 | 1015.1 |
| 20260831193335 | 95 | 10 | 1.7 | 5.2 | 0.00 | 0.00 | 0.00 | 50 | 1015.2 |
| 20260831192400 | 95 | 33 | 0.9 | 3.5 | 0.00 | 0.00 | 0.00 | 51 | 1015.4 |
| 20260831191346 | 95 | 108 | 0.9 | 2.6 | 0.00 | 0.00 | 0.00 | 53 | 1015.6 |
| 20260831190329 | 94 | 25 | 1.7 | 4.3 | 0.00 | 0.00 | 0.00 | 52 | 1015.8 |
| 20260831185333 | 94 | 58 | 0.0 | 4.3 | 0.00 | 0.00 | 0.00 | 54 | 1016.1 |
| 20260831184340 | 94 | 38 | 0.9 | 2.6 | 0.00 | 0.00 | 0.00 | 54 | 1016.2 |
| 20260831183343 | 93 | 41 | 0.9 | 4.3 | 0.00 | 0.00 | 0.00 | 55 | 1016.2 |
| 20260831182329 | 94 | 330 | 2.6 | 6.1 | 0.00 | 0.00 | 0.00 | 54 | 1016.3 |
| 20260831181333 | 93 | 166 | 0.9 | 3.5 | 0.00 | 0.00 | 0.00 | 54 | 1016.4 |
| 20260831180339 | 92 | 338 | 0.0 | 2.6 | 0.00 | 0.00 | 0.00 | 56 | 1016.6 |
| 20260831175324 | 94 | 133 | 0.9 | 3.5 | 0.00 | 0.00 | 0.00 | 53 | 1016.7 |
| 20260831174330 | 93 | 50 | 0.0 | 4.3 | 0.00 | 0.00 | 0.00 | 55 | 1016.8 |